Wind_Speed
24 29 31 24 25 20 19 24 31 36 39 39 38 39 39 38 36 38 39 37 38 38 39 40 42 44 45 48 51 54 57 58 65 64 53 53 58 51 49 49 50 48 48
19 28 31 32 26 19 17 23 27 32 32 36 38 39 39 36 38 38 40 41 40 41 42 45 46 49 52 57 58 58 57 56 60 64 58 54 57 60 51 49 50 49 49
25 27 32 30 27 20 23 26 31 33 32 35 37 38 38 38 36 39 38 40 42 44 45 44 47 54 57 58 58 57 52 53 53 52 46 39 45 47 54 52 49 49 49
26 30 29 31 33 26 29 35 38 36 33 33 35 35 36 35 36 38 38 41 43 43 42 45 51 56 55 53 58 49 43 39 32 35 35 33 36 39 43 45 49 47 46
27 32 29 32 33 30 36 36 35 36 28 32 32 31 34 34 36 37 38 41 41 41 39 44 51 57 54 49 52 41 36 32 31 34 34 32 29 28 28 32 39 41 41
30 31 29 30 28 33 32 35 37 26 26 29 28 30 33 35 36 37 38 40 38 37 41 44 47 59 52 51 45 32 33 37 37 35 30 30 25 23 22 24 34 37 40
26 26 28 28 29 30 34 31 29 24 25 28 28 28 33 37 36 38 37 38 36 35 39 44 49 57 52 53 27 30 29 24 31 31 30 30 27 21 18 15 23 31 36
21 21 27 25 28 31 29 29 23 22 26 27 25 29 31 35 35 35 34 35 33 32 39 42 48 54 52 50 30 28 22 20 19 20 22 20 18 16 17 15 20 21 26
23 21 22 25 28 25 26 25 21 25 27 26 30 27 34 30 32 33 33 32 29 30 38 41 44 52 50 46 26 27 23 23 17 18 17 15 11 10 18 23 25 26 28
18 19 23 26 24 27 26 23 22 27 31 31 32 30 30 29 31 33 31 32 28 29 35 36 40 44 50 40 26 28 23 17 23 25 12 11 16 15 20 23 24 23 24
18 23 26 26 26 28 20 30 22 28 35 34 32 39 32 27 28 28 32 33 30 30 35 33 36 41 45 52 46 13 18 24 31 18 4 3 7 15 20 21 20 21 22
22 26 26 24 26 26 24 26 26 35 39 36 34 32 26 27 29 29 30 31 32 31 34 30 32 37 39 44 40 30 20 18 28 20 9 10 13 14 16 16 17 18 19
21 22 23 17 12 17 23 19 28 31 28 32 33 28 24 23 27 28 31 31 30 30 31 26 27 31 33 33 44 43 36 16 16 21 24 11 7 8 11 11 13 15 17
21 20 22 20 17 18 21 22 25 27 27 33 32 25 21 19 24 28 30 31 27 27 23 22 23 26 28 27 27 34 38 36 32 19 15 12 13 10 10 11 11 8 9
22 23 22 20 20 21 20 22 24 24 27 32 29 20 20 19 24 26 29 27 25 23 21 21 22 21 22 23 22 23 27 30 33 31 26 23 15 12 10 11 8 3 4
23 24 25 22 25 26 25 23 25 24 23 19 17 18 21 19 24 23 25 23 23 21 19 20 22 20 20 21 20 20 19 19 24 27 26 29 30 29 26 20 15 10 6
20 21 21 20 21 24 23 24 23 21 18 15 17 15 16 18 19 24 24 20 20 19 19 19 20 21 18 18 19 18 18 18 18 15 16 20 22 22 21 22 25 24 17
18 17 18 19 20 20 19 18 19 15 14 14 15 15 16 21 19 20 18 18 17 16 17 18 18 16 17 17 16 18 16 15 14 13 13 12 12 11 12 12 12 13 13
19 17 14 14 16 17 14 12 10 12 11 12 11 13 16 15 15 19 18 15 17 17 17 17 16 14 14 14 15 14 13 14 14 14 14 13 12 11 11 10 10 9 9
12 10 11 10 10 12 10 11 13 11 10 11 12 16 16 12 16 19 17 14 14 16 17 16 16 15 14 14 14 14 14 14 12 13 13 12 12 11 11 11 11 11 10
9 9 12 13 13 13 12 9 7 10 14 11 12 8 17 8 11 18 16 13 14 15 16 16 16 16 14 14 14 14 14 13 12 11 11 10 11 12 12 11 11 12 12
9 10 13 15 17 16 13 10 12 12 10 10 7 6 7 9 12 13 13 11 13 14 14 15 14 13 13 13 13 13 13 12 11 10 10 10 11 11 11 12 13 14 14
13 11 9 6 17 18 15 12 14 13 10 8 6 8 7 9 10 11 13 14 14 15 15 14 13 12 12 12 13 13 11 10 10 9 10 10 11 12 13 14 15 17 18
17 15 11 10 12 13 13 11 13 11 10 10 9 7 6 7 10 13 14 15 14 13 14 14 14 14 14 14 13 11 10 9 10 10 11 12 13 13 15 17 19 20 21
17 16 14 14 13 13 11 9 10 10 7 7 8 6 9 12 13 14 14 14 14 14 13 13 13 12 12 12 11 11 10 10 10 11 11 12 15 16 18 19 21 23 23
11 13 14 9 5 7 6 8 6 5 8 6 6 8 12 14 14 14 14 14 13 13 13 13 12 11 10 10 10 11 11 11 12 13 14 15 16 18 20 21 22 22 22
Wind_Direction
268 271 281 258 261 280 286 293 293 296 288 285 290 293 302 310 312 318 316 320 319 319 318 316 315 312 309 307 303 297 291 286 284 282 273 274 273 267 255 247 244 243 247
307 278 270 276 271 278 299 307 311 308 298 285 286 292 300 308 310 315 317 321 320 320 319 318 318 316 312 312 310 303 293 287 284 280 278 274 271 264 256 249 245 241 241
294 298 275 269 274 277 296 304 298 298 291 283 285 290 298 304 314 310 319 321 322 321 321 319 321 321 319 317 314 308 295 286 278 278 280 278 277 267 257 248 245 242 238
281 299 274 269 266 279 293 298 299 297 285 284 286 293 301 306 308 311 319 321 321 321 320 321 326 326 320 318 317 313 305 292 276 276 282 283 285 275 260 244 243 239 237
275 292 283 277 272 284 297 299 295 294 290 281 286 295 299 304 306 314 318 322 323 321 324 327 331 330 323 317 319 313 304 296 288 283 287 287 283 281 257 240 236 236 234
264 279 280 278 274 287 293 295 301 299 280 280 285 298 301 303 309 313 320 323 322 324 329 331 332 337 328 328 318 310 302 295 286 278 282 285 278 276 266 246 236 235 229
263 265 270 271 279 284 286 294 298 277 277 284 294 304 304 305 309 314 320 321 326 328 329 329 332 338 333 329 326 316 330 287 296 291 272 281 273 263 262 236 233 225 219
289 264 264 274 276 279 288 293 277 274 278 285 297 303 306 309 310 315 318 322 329 327 330 330 334 342 339 331 308 322 318 298 289 288 288 288 272 231 239 216 224 211 210
290 261 265 269 274 282 288 283 270 276 284 289 299 302 308 310 316 317 314 325 327 330 332 329 338 347 346 335 319 319 320 327 311 294 289 283 256 233 216 208 203 203 207
273 259 261 270 279 283 284 281 274 285 289 287 296 312 314 309 314 317 324 329 331 332 332 331 342 351 354 356 356 345 337 327 330 327 289 273 236 212 200 200 195 203 209
260 259 262 269 275 279 284 296 283 301 297 288 289 300 299 302 316 325 334 332 332 332 329 333 345 352 351 354 0 338 352 353 349 329 215 237 209 187 176 189 195 202 206
265 266 270 275 289 289 279 291 279 290 300 293 304 300 288 293 319 332 336 334 332 332 325 333 345 350 353 351 2 17 8 15 20 38 84 132 139 153 165 178 187 195 204
276 282 282 275 300 275 275 274 277 283 281 281 302 293 282 299 314 327 334 333 329 326 326 339 346 349 354 360 12 16 31 26 40 47 59 96 127 155 169 174 192 200 204
284 274 270 287 287 263 254 264 277 276 276 278 300 284 287 304 316 324 326 326 326 322 330 348 350 354 351 357 16 18 25 29 45 60 87 82 63 154 183 197 215 232 198
277 274 274 279 269 269 250 265 271 273 280 285 287 269 281 308 317 324 323 323 323 321 339 355 349 354 355 1 12 30 34 34 36 41 41 50 81 100 106 141 154 176 256
278 275 269 264 263 264 265 267 274 273 283 287 263 270 284 299 313 321 327 323 322 324 340 355 346 355 355 358 9 16 29 40 48 44 44 49 52 52 53 50 61 81 94
277 266 262 261 248 259 267 271 270 273 275 278 274 280 287 301 313 314 319 320 326 332 340 349 349 347 0 2 4 7 11 23 34 39 47 51 54 56 56 54 58 64 71
276 266 259 260 265 265 262 261 265 260 271 275 278 280 284 310 307 317 322 327 326 333 336 344 347 346 348 2 8 6 10 10 16 21 28 29 36 39 47 53 56 55 57
279 270 270 270 261 248 241 249 244 266 263 278 266 296 309 303 313 316 323 328 325 340 338 341 339 341 348 350 356 4 6 10 8 17 24 24 26 30 30 30 28 26 25
271 256 252 272 244 217 223 249 253 247 253 264 275 284 294 291 309 317 325 329 334 336 334 335 334 341 347 350 354 356 357 4 7 6 8 12 13 18 22 22 20 20 15
272 251 280 281 226 230 229 227 248 264 257 246 282 317 281 258 309 316 322 333 340 332 329 331 334 338 343 347 352 354 353 353 357 0 6 11 15 17 19 19 18 12 6
283 281 288 255 219 216 203 230 248 235 231 267 291 298 294 307 303 309 317 331 335 329 328 331 331 334 338 341 345 348 348 349 355 360 2 4 5 6 4 2 0 357 352
285 285 292 237 209 215 240 248 252 239 254 272 244 237 315 310 308 318 326 337 335 327 325 327 328 330 334 338 340 342 344 345 348 352 347 345 349 352 351 349 347 345 342
279 275 272 260 246 243 248 253 251 254 257 225 216 311 297 313 318 322 326 331 331 327 322 325 328 332 336 338 339 340 339 339 340 342 338 338 342 343 342 339 336 335 334
274 270 260 265 258 259 254 230 246 244 216 232 249 273 316 331 324 320 326 329 326 323 325 325 328 330 330 331 334 335 336 338 338 337 336 334 335 336 335 332 331 329 328
272 265 261 260 202 217 226 204 183 192 218 231 265 303 313 315 315 320 323 322 321 323 326 327 328 331 332 333 334 338 339 337 334 332 332 331 331 331 330 329 327 324 323
Height
3189 3189 3188 3188 3180 3188 3186 3185 3186 3185 3183 3180 3177 3174 3169 3166 3161 3156 3151 3144 3138 3133 3126 3119 3115 3108 3101 3096 3090 3083 3075 3067 3054 3053 3063 3062 3058 3064 3068 3070 3072 3077 3079
3186 3184 3184 3181 3178 3180 3178 3179 3180 3179 3176 3173 3171 3167 3162 3157 3154 3149 3143 3135 3129 3124 3117 3109 3102 3095 3088 3082 3072 3062 3054 3049 3041 3033 3041 3044 3041 3040 3049 3053 3057 3061 3066
3181 3180 3177 3176 3176 3163 3174 3174 3175 3172 3168 3166 3163 3159 3155 3152 3146 3142 3133 3128 3122 3114 3106 3099 3093 3083 3074 3065 3055 3042 3035 3028 3023 3020 3021 3027 3022 3022 3027 3036 3041 3047 3052
3177 3175 3173 3175 3171 3170 3171 3170 3167 3164 3161 3159 3156 3153 3149 3143 3139 3134 3127 3121 3114 3106 3099 3092 3083 3073 3063 3050 3040 3030 3021 3013 3012 3010 3011 3013 3009 3006 3008 3017 3024 3033 3040
3172 3169 3170 3168 3168 3166 3165 3162 3160 3155 3154 3152 3150 3146 3142 3136 3132 3126 3120 3114 3106 3098 3092 3085 3075 3064 3051 3039 3028 3019 3012 3008 3005 3002 3001 3001 3001 2997 2997 3003 3012 3021 3029
3165 3166 3163 3162 3162 3162 3158 3154 3151 3148 3148 3146 3143 3140 3134 3131 3125 3120 3113 3106 3099 3090 3084 3077 3067 3053 3038 3027 3016 3011 3005 2999 2997 2994 2994 2993 2992 2992 2992 2995 3002 3009 3018
3159 3158 3157 3156 3155 3154 3150 3147 3144 3142 3141 3139 3138 3135 3130 3125 3119 3113 3107 3101 3093 3085 3078 3069 3059 3047 3030 3016 3009 3004 2996 2991 2988 2984 2985 2985 2984 2986 2988 2990 2994 3001 3009
3150 3149 3149 3148 3147 3144 3141 3138 3135 3135 3134 3133 3130 3128 3125 3119 3112 3107 3102 3095 3089 3082 3073 3064 3054 3041 3025 3011 3004 2998 2991 2987 2982 2978 2978 2976 2975 2977 2982 2986 2992 2997 3004
3142 3141 3141 3139 3138 3135 3132 3130 3130 3130 3129 3127 3125 3121 3116 3112 3108 3102 3096 3090 3084 3078 3070 3062 3052 3038 3023 3010 2999 2994 2988 2984 2975 2974 2971 2970 2971 2973 2977 2980 2986 2993 2999
3133 3133 3131 3129 3127 3126 3126 3125 3125 3124 3124 3122 3118 3114 3111 3107 3104 3099 3091 3084 3079 3073 3068 3062 3051 3038 3026 3010 2997 2992 2986 2975 2974 2968 2966 2965 2965 2970 2974 2980 2986 2992 2998
3124 3124 3123 3123 3123 3122 3122 3121 3122 3121 3118 3115 3111 3108 3106 3104 3100 3094 3086 3081 3075 3069 3064 3059 3049 3037 3029 3015 3002 2990 2987 2981 2974 2963 2963 2965 2965 2969 2975 2981 2987 2991 2996
3117 3117 3118 3118 3117 3117 3117 3117 3116 3112 3110 3108 3106 3103 3100 3100 3096 3089 3083 3077 3071 3067 3062 3056 3047 3039 3031 3021 3007 2995 2990 2985 2976 2965 2968 2970 2971 2973 2979 2983 2987 2991 2996
3110 3110 3111 3112 3111 3111 3112 3111 3108 3106 3104 3102 3102 3099 3097 3095 3091 3086 3080 3075 3070 3066 3061 3054 3047 3041 3034 3027 3016 3003 2994 2989 2984 2980 2972 2975 2977 2980 2982 2987 2990 2992 2996
3103 3104 3105 3105 3105 3104 3104 3104 3102 3100 3097 3096 3096 3095 3092 3090 3087 3083 3078 3074 3069 3065 3060 3053 3047 3041 3035 3030 3023 3013 3004 2996 2988 2985 2982 2981 2978 2982 2985 2988 2990 2990 2989
3096 3096 3098 3098 3097 3097 3097 3096 3096 3094 3092 3090 3089 3089 3088 3086 3084 3079 3075 3071 3067 3063 3056 3051 3049 3044 3039 3034 3026 3020 3014 3007 3001 2996 2993 2988 2986 2986 2986 2988 2988 2991 2992
3088 3088 3089 3088 3089 3090 3088 3089 3089 3087 3086 3084 3084 3084 3084 3083 3081 3076 3071 3068 3065 3060 3055 3051 3048 3043 3039 3034 3029 3024 3020 3016 3011 3008 3004 3001 2997 2993 2991 2991 2990 2991 2993
3079 3079 3080 3081 3081 3081 3081 3082 3082 3081 3081 3082 3082 3082 3081 3080 3077 3073 3069 3066 3062 3058 3054 3050 3047 3043 3039 3035 3030 3026 3023 3018 3015 3015 3012 3010 3007 3005 3003 3001 2999 2997 2996
3073 3073 3074 3074 3074 3074 3075 3077 3076 3077 3078 3079 3078 3078 3077 3077 3074 3070 3067 3062 3059 3056 3053 3049 3046 3043 3039 3036 3033 3029 3025 3022 3019 3017 3015 3014 3012 3010 3008 3007 3006 3005 3005
3066 3067 3068 3069 3069 3069 3070 3071 3072 3073 3075 3075 3075 3074 3074 3073 3071 3068 3065 3062 3058 3053 3051 3048 3046 3043 3039 3036 3034 3031 3028 3025 3022 3019 3017 3016 3014 3012 3011 3009 3008 3008 3008
3062 3063 3064 3064 3064 3064 3066 3067 3068 3069 3070 3071 3070 3070 3069 3069 3067 3065 3062 3059 3055 3052 3050 3047 3045 3042 3039 3036 3033 3031 3028 3026 3024 3021 3020 3017 3016 3015 3014 3012 3011 3010 3009
3059 3060 3059 3059 3060 3061 3062 3063 3065 3066 3066 3066 3066 3065 3065 3064 3065 3062 3059 3056 3053 3051 3048 3045 3043 3040 3037 3035 3033 3031 3029 3027 3024 3022 3020 3019 3017 3016 3015 3014 3012 3011 3010
3057 3056 3055 3053 3055 3057 3059 3060 3061 3061 3061 3062 3062 3062 3063 3064 3063 3059 3057 3055 3052 3050 3046 3044 3043 3040 3038 3035 3033 3031 3028 3027 3025 3023 3021 3020 3018 3017 3016 3015 3014 3012 3011
3054 3053 3052 3051 3052 3054 3055 3056 3057 3056 3058 3058 3059 3059 3061 3061 3059 3056 3054 3052 3050 3048 3044 3042 3041 3039 3037 3034 3032 3030 3028 3026 3025 3023 3022 3020 3018 3017 3015 3014 3012 3010 3008
3049 3049 3049 3049 3050 3050 3051 3053 3054 3053 3054 3054 3054 3057 3059 3058 3056 3054 3052 3050 3048 3046 3043 3042 3040 3037 3034 3032 3030 3029 3027 3026 3024 3022 3021 3019 3017 3015 3013 3011 3009 3007 3005
3045 3045 3045 3046 3046 3047 3048 3049 3051 3050 3052 3054 3054 3055 3055 3054 3053 3052 3049 3047 3045 3043 3042 3040 3038 3036 3033 3031 3029 3027 3025 3024 3022 3021 3020 3018 3016 3013 3011 3009 3006 3004 3001
3041 3041 3041 3042 3042 3044 3045 3046 3049 3050 3050 3051 3051 3051 3051 3051 3050 3048 3046 3045 3043 3042 3040 3038 3036 3034 3031 3029 3027 3026 3024 3023 3021 3019 3018 3016 3014 3011 3008 3006 3004 3001 2998